{"data":{"norad_id":56490,"epoch":"2026-05-24T18:17:00.083328Z","epoch_age_seconds":95768,"freshness":"FRESH","line1":"1 56490U 23064AU  26144.76180652 -.00000338  00000+0 -20553-4 0  9995","line2":"2 56490  69.9990 272.7953 0002930 266.2822  93.8002 14.98337762167629","mean_motion":14.98337762,"eccentricity":0.000293,"inclination_deg":69.999,"raan_deg":272.7953,"arg_perigee_deg":266.2822,"mean_anomaly_deg":93.8002,"bstar":-2.0553e-5,"rev_number":16762,"period_min":96.106501252286,"perigee_km":569.99548821923,"apogee_km":574.06828718743,"semimajor_km":6950.1688877033,"source":"CELESTRAK","updated_at":"2026-05-25T13:38:18.075331Z"}}